Location: Observatoire
(46.1952°N, 5.3391°E)
Time: 20:59:59
(UTC+02:00)

ITAMSAT 1 - Visible Passes

Search period start: 22 April 2024 00:00
Search period end: 02 May 2024 00:00
Orbit: 783 x 795 km, 98.8° (Epoch: 22 April)

Date Brightness Start Highest point End Pass type
(mag) Time Alt. Az. Time Alt. Az. Time Alt. Az.
22 Apr 8.6 20:58:31 10° SE 21:03:03 31° ENE 21:07:37 10° N visible
22 Apr 8.8 22:37:33 10° SSW 22:42:22 39° W 22:47:16 10° NNW visible
23 Apr 7.9 22:07:15 10° S 22:12:23 71° WSW 22:17:39 10° NNW visible
24 Apr 7.7 21:37:23 10° SSE 21:42:33 65° ENE 21:47:44 10° N visible
24 Apr 10.0 23:18:54 10° SW 23:22:27 18° W 23:26:01 10° NW visible
25 Apr 8.4 21:08:05 10° SE 21:12:50 37° ENE 21:17:37 10° N visible
25 Apr 9.1 22:47:37 10° SSW 22:52:17 33° W 22:56:59 10° NNW visible
26 Apr 8.2 22:17:07 10° S 22:22:16 59° WSW 22:27:27 10° NNW visible
27 Apr 7.7 21:47:10 10° SSE 21:52:22 78° ENE 21:57:38 10° NNW visible
27 Apr 10.1 23:29:28 10° WSW 23:32:25 15° W 23:35:22 10° NW visible
28 Apr 8.2 21:17:42 10° SE 21:22:37 44° ENE 21:27:34 10° N visible
28 Apr 9.4 22:57:48 10° SSW 23:02:12 27° W 23:06:38 10° NW visible
29 Apr 8.5 22:27:06 10° S 22:32:08 49° W 22:37:13 10° NNW visible
30 Apr 7.7 21:56:59 10° SSE 22:02:13 88° WSW 22:07:28 10° NNW visible
30 Apr 10.2 23:40:21 10° WSW 23:42:23 12° W 23:44:26 10° WNW visible
01 May 8.0 21:27:21 10° SE 21:32:24 53° ENE 21:37:29 10° N visible
01 May 9.7 23:08:05 10° SW 23:12:08 23° W 23:16:13 10° NW visible
